Terminal Aerodrome Forecast
Issued by NWS New Orleans/Baton Rouge, LA

Home | Current Version | Previous Version | Text Only | Print | Product List | Glossary On
Versions: 1 2 3 4 5 6 7 8 9 10 11 12 13
642
FTUS44 KLIX 282331
TAFBTR
TAF
KBTR 282331Z 2900/2924 15016G25KT P6SM SCT030 BKN045
     FM290400 14012KT P6SM BKN015
     FM291600 15019G27KT P6SM BKN025=

USA.gov is the U.S. government's official web portal to all federal, state and local government web resources and services.